Flag for Brunei Weather for the Past 2 Weeks in Bandar Seri Begawan, Brunei

Now
81 °F

Passing clouds.


Feels Like: 88 °F
Forecast: 79 / 90 °F
Wind: 2 mph from North

Location: Brunei Airport

Current Time: Feb 11, 2016 at 3:04:32 AM

Latest Report: Feb 11, 2016 at 2:30 AM


Visibility: N/A

Pressure: 29.83 "Hg

Humidity: 94%

Dew point: 79 °F

Location of Bandar Seri BegawanLocation

Historic Weather in Bandar Seri Begawan — Graph

°F

Bandar Seri Begawan Temperature Yesterday

Maximum temperature yesterday: 88 °F (at 11:30 AM)
Minimum temperature yesterday: 81 °F (at 12:00 AM)
Average temperature yesterday: 83 °F

High & Low Weather Summary for the Past Weeks

 TemperatureHumidityPressure
High93 °F (Jan 27, 2:00 PM)100% (Jan 28, 2:30 AM)29.92 "Hg (Jan 28, 2:30 AM)
Low77 °F (Jan 28, 2:30 AM)49% (Jan 30, 2:00 PM)29.71 "Hg (Feb 5, 3:30 PM)
Average83 °F85%29.83 "Hg
* Reported Jan 27 1:00 AM — Feb 11 1:30 AM, Bandar Seri Begawan, Weather by CustomWeather, © 2016

Note: Actual official high and low records may vary slightly from our data, if they occured in-between our weather recording intervals... More about our weather records

Advertising

Bandar Seri Begawan Weather History for the Previous 24 Hours

 ConditionsComfort  
Time TempWeatherWind HumidityBarometerVisibility
1:30 AM
Thu, Feb 11
81 °FPassing clouds.3 mph94%29.86 "HgN/A
1:00 AM81 °FPartly cloudy.2 mph94%29.86 "HgN/A
12:30 AM81 °FPartly cloudy.3 mph94%29.86 "HgN/A
12:00 AM82 °FPartly cloudy.7 mph89%29.89 "HgN/A
11:30 PM
Wed, Feb 10
82 °FPartly cloudy.3 mph89%29.89 "HgN/A
11:00 PM82 °FPartly cloudy.5 mph89%29.89 "HgN/A
10:30 PM82 °FPassing clouds.5 mph89%29.89 "HgN/A
10:00 PM82 °FPartly cloudy.6 mph89%29.89 "HgN/A
9:30 PM82 °FPartly cloudy.5 mph89%29.89 "HgN/A
9:00 PM82 °FPartly cloudy.5 mph89%29.89 "HgN/A
8:30 PM82 °FPartly cloudy.5 mph89%29.86 "HgN/A
8:00 PM82 °FPartly cloudy.7 mph84%29.86 "HgN/A
7:30 PM82 °FPartly cloudy.5 mph84%29.83 "HgN/A
7:00 PM82 °FPartly cloudy.6 mph84%29.83 "HgN/A
6:30 PM82 °FBroken clouds.7 mph89%29.83 "HgN/A
6:00 PM82 °FBroken clouds.8 mph89%29.80 "HgN/A
5:30 PM84 °FPartly sunny.9 mph84%29.80 "HgN/A
5:00 PM84 °FPartly sunny.8 mph79%29.77 "HgN/A
4:30 PM86 °FPartly sunny.7 mph75%29.77 "HgN/A
4:00 PM86 °FPartly sunny.6 mph79%29.77 "HgN/A
3:30 PM88 °FPartly sunny.7 mph70%29.77 "HgN/A
3:00 PM88 °FPartly sunny.8 mph70%29.77 "HgN/A
2:30 PM88 °FPartly sunny.7 mph75%29.77 "HgN/A
2:00 PM88 °FPartly sunny.8 mph70%29.80 "HgN/A
1:30 PM88 °FPartly sunny.9 mph70%29.80 "HgN/A
1:00 PM88 °FPartly sunny.8 mph75%29.80 "HgN/A
12:30 PM88 °FPartly sunny.6 mph75%29.83 "HgN/A
12:00 PM88 °FBroken clouds.6 mph75%29.83 "HgN/A
11:30 AM88 °FBroken clouds.6 mph75%29.86 "HgN/A
11:00 AM86 °FBroken clouds.5 mph79%29.86 "HgN/A
10:30 AM86 °FBroken clouds.2 mph79%29.86 "HgN/A
10:00 AM86 °FBroken clouds.2 mph79%29.86 "HgN/A
9:30 AM86 °FBroken clouds.3 mph79%29.86 "HgN/A
8:30 AM82 °FBroken clouds.5 mph89%29.86 "Hg6 mi
8:00 AM82 °FPartly sunny.1 mph89%29.83 "Hg6 mi
7:30 AM81 °FPartly sunny.3 mph94%29.83 "Hg6 mi
7:00 AM81 °FBroken clouds.1 mph94%29.83 "Hg6 mi
6:30 AM81 °FPartly cloudy.2 mph94%29.80 "Hg6 mi
6:00 AM81 °FPartly cloudy.3 mph94%29.80 "Hg6 mi
5:30 AM81 °FPassing clouds.2 mph94%29.80 "Hg6 mi
5:00 AM81 °FPassing clouds.3 mph94%29.77 "Hg6 mi
4:30 AM81 °FPassing clouds.3 mph94%29.77 "Hg6 mi
4:00 AM81 °FPassing clouds.2 mph94%29.77 "Hg6 mi
3:30 AM81 °FPassing clouds.2 mph94%29.77 "Hg6 mi
3:00 AM81 °FPassing clouds.1 mph94%29.80 "Hg6 mi
Weather by CustomWeather, © 2016

See weather overviewHow to use our weather pages